Regional Weather Roundup
Issued by NWS

Home | Current Version | Previous Version | Graphics & Text | Print | Product List | Glossary On
Versions: 1 2 3 4 5 6 7 8 9 10 11 12 13 14 15 16 17 18 19 20 21 22 23 24 25 26 27 28 29 30 31 32 33 34 35 36 37 38 39 40 41 42 43 44 45 46 47 48 49 50
000
ASUS43 KOAX 252102
RWRNE

WEATHER ROUNDUP FOR NEBRASKA
NATIONAL WEATHER SERVICE OMAHA NE
400 PM CDT SAT MAR 25 2017

NOTES: SATELLITE DATA IS BEING USED TO AUGMENT CLOUD COVER ABOVE
       12000 FEET.
       "FAIR" INDICATES FEW OR NO CLOUDS BELOW 12,000 FEET WITH NO
       SIGNIFICANT WEATHER AND/OR OBSTRUCTIONS TO VISIBILITY.

  * THESE STATIONS DO NOT REPORT WEATHER SUCH AS RAIN...SNOW OR FOG.

NEZ001>004-019>022-054>056-252200-
NEBRASKA PANHANDLE

CITY           SKY/WX    TMP DP  RH WIND       PRES   REMARKS
SCOTTSBLUFF    CLOUDY    67  29  24 S9        29.85F
ALLIANCE       SUNNY     63  29  27 S13       29.86F
CHADRON        CLOUDY    67  29  24 W6        29.82F
KIMBALL        CLOUDY    63  32  31 S7G16     29.90F
SIDNEY         CLOUDY    60  31  33 SW10      29.91F
$$

NEZ057>060-069>072-079>082-252200-
SOUTHWEST NEBRASKA

CITY           SKY/WX    TMP DP  RH WIND       PRES   REMARKS
NORTH PLATTE   SUNNY     63  22  20 VRB3      29.90F
IMPERIAL       SUNNY     58  23  26 CALM      29.92F
LEXINGTON      MOSUNNY   53  43  70 E9        29.92F
MCCOOK         SUNNY     62  31  31 SE6       29.90F
OGALLALA       SUNNY     62  22  21 SE5       29.91F
$$

NEZ005>010-023>029-035>040-094-252200-
NORTH CENTRAL NEBRASKA

CITY           SKY/WX    TMP DP  RH WIND       PRES   REMARKS
VALENTINE      SUNNY     62  16  16 SE8       29.91F
AINSWORTH      SUNNY     57  36  45 SE8       29.92F
BROKEN BOW     MOSUNNY   51  42  71 E8        29.93F
O`NEILL        CLOUDY    40  38  92 N6        29.98F
ORD            CLOUDY    43  38  82 N8        29.95F
THEDFORD       SUNNY     62  25  23 CALM      29.92F
$$

NEZ041-046>049-061>064-073>077-083>087-252200-
SOUTH CENTRAL NEBRASKA

CITY           SKY/WX    TMP DP  RH WIND       PRES   REMARKS
GRAND ISLAND   CLOUDY    40  39  97 N9        29.96F WCI  34
AURORA         CLOUDY    38  38 100 N9        29.96S FOG     WCI  32
HASTINGS       CLOUDY    40  37  89 N9        29.96F WCI  34
HEBRON         CLOUDY    41  39  93 N12       29.94F FOG
HOLDREGE       CLOUDY    45  40  85 N6        29.94F
KEARNEY *      CLOUDY    43  37  81 N5        29.96F
YORK           CLOUDY    39  39 100 N15       29.95S FOG     WCI  31
$$

NEZ011>018-030>034-042>045-252200-
NORTHEAST NEBRASKA

CITY           SKY/WX    TMP DP  RH WIND       PRES   REMARKS
NORFOLK        CLOUDY    39  37  92 NE10      29.96F WCI  32
ALBION         CLOUDY    41  38  88 N8        29.97S
BLAIR          LGT RAIN  41  39  95 N14       29.92F
FREMONT        DRIZZLE   40  40  98 N9        29.96S WCI  34
TEKAMAH        CLOUDY    41  38  89 N17       29.95S
WAYNE          CLOUDY    40  39  99 NE13      29.97S FOG     WCI  32
$$

NEZ050>053-065>068-078-088>093-252200-
SOUTHEAST NEBRASKA

CITY           SKY/WX    TMP DP  RH WIND       PRES   REMARKS
LINCOLN        CLOUDY    42  39  89 N17       29.95S
OMAHA EPPLEY   CLOUDY    43  38  82 N13G22    29.93F
BEATRICE       LGT RAIN  43  41  93 N13       29.92F
NEBRASKA CITY  DRIZZLE   42  42 100 NE12      29.90F
PLATTSMOUTH    CLOUDY    42  39  86 N9        29.91S
$$

NEZ044-045-051>053-067-252200-
OMAHA AREA

CITY           SKY/WX    TMP DP  RH WIND       PRES   REMARKS
OMAHA EPPLEY   CLOUDY    43  38  82 N13G22    29.93F
BLAIR          LGT RAIN  41  39  95 N14       29.92F
FREMONT        DRIZZLE   40  40  98 N9        29.96S WCI  34
MILLARD        CLOUDY    45  41  87 NE9       29.93S
OFFUTT AFB     CLOUDY    43  39  86 N12       29.91F
PLATTSMOUTH    CLOUDY    42  39  86 N9        29.91S
WAHOO          DRIZZLE   40  38  93 N14G20    29.94S WCI  33
$$




USA.gov is the U.S. government's official web portal to all federal, state and local government web resources and services.